Weather History for KCOM - February, 2013

Change the Weather History Date:

Thursday, February 14, 2013

  Actual Average (KABI) Record (KABI)
Temperature  
Mean Temperature 50 °F 48 °F  
Max Temperature 68 °F 60 °F 88 °F (1979)
Min Temperature 33 °F 36 °F 5 °F (1895)
Degree Days  
Heating Degree Days 14 17  
Month to date heating degree days 252  
Since 1 July heating degree days 1921  
Cooling Degree Days 0 0  
Month to date cooling degree days 0  
Year to date cooling degree days 1  
Moisture  
Dew Point 25 °F    
Average Humidity 42    
Maximum Humidity 72    
Minimum Humidity 16    
Precipitation  
Precipitation 0.00 in 0.05 in 0.98 in (1917)
Month to date precipitation 0.65  
Year to date precipitation 1.67  
Sea Level Pressure  
Sea Level Pressure 30.03 in    
Wind  
Wind Speed 4 mph (SW)    
Max Wind Speed 14 mph    
Max Gust Speed 18 mph    
Visibility 10 miles    
Events      
T = Trace of Precipitation, MM = Missing Value Source: NWS Daily Summary

Daily Weather History Graph

Daily Weather History Graph

Search for Another Location

Airport or City:

Trip Planner

Search our weather history database for the weather conditions in past years. The results will help you decide how hot, cold, wet, or windy it might be!

Date:

Astronomy

Feb. 14, 2013 Rise Set
Actual Time 7:20 AM CST 6:23 PM CST
Civil Twilight 6:55 AM CST 6:48 PM CST
Nautical Twilight 6:26 AM CST 7:17 PM CST
Astronomical Twilight 5:58 AM CST 7:45 PM CST
Moon 9:43 AM CST (2/14) 11:05 PM CST (2/14)
Length of Visible Light 11h 53m
Length of Day
11h 03m
Waxing Crescent, 22% of the Moon is Illuminated
Feb 14
Waxing Crescent
Feb 17
First Quarter
Feb 25
Full
Mar 4
Last Quarter
Mar 11
New

Hourly Weather History & Observations

Time (CST) Temp. Windchill Dew Point Humidity Pressure Visibility Wind Dir Wind Speed Gust Speed Precip Events Conditions
12:15 AM 42.1 °F 39.2 °F 23.5 °F 48% 30.05 in 10.0 mi SSW 4.6 mph - N/A   Clear
12:35 AM 41.7 °F 38.8 °F 23.7 °F 49% 30.05 in 10.0 mi SSW 4.6 mph - N/A   Clear
12:55 AM 41.5 °F 39.6 °F 23.5 °F 49% 30.05 in 10.0 mi SSW 3.5 mph - N/A   Clear
1:15 AM 41.5 °F 39.6 °F 23.4 °F 49% 30.05 in 10.0 mi SSW 3.5 mph - N/A   Clear
1:35 AM 40.8 °F 37.8 °F 23.5 °F 50% 30.05 in 10.0 mi SSW 4.6 mph - N/A   Clear
1:55 AM 40.1 °F 38.0 °F 23.9 °F 52% 30.06 in 10.0 mi SSW 3.5 mph - N/A   Clear
2:15 AM 40.1 °F 38.0 °F 23.7 °F 52% 30.05 in 10.0 mi SSW 3.5 mph - N/A   Clear
2:35 AM 39.2 °F 34.2 °F 24.1 °F 55% 30.05 in 10.0 mi SSW 6.9 mph - N/A   Clear
2:55 AM 39.4 °F 36.1 °F 24.4 °F 55% 30.04 in 10.0 mi SSW 4.6 mph - N/A   Clear
3:15 AM 36.3 °F - 25.0 °F 63% 30.04 in 10.0 mi Calm Calm - N/A   Clear
3:35 AM 34.7 °F - 25.0 °F 68% 30.04 in 10.0 mi Calm Calm - N/A   Clear
3:55 AM 35.4 °F - 25.0 °F 66% 30.04 in 10.0 mi Calm Calm - N/A   Clear
4:15 AM 34.9 °F - 24.8 °F 67% 30.05 in 10.0 mi Calm Calm - N/A   Clear
4:35 AM 34.9 °F - 24.8 °F 67% 30.05 in 10.0 mi Calm Calm - N/A   Clear
4:55 AM 35.8 °F - 24.6 °F 64% 30.05 in 10.0 mi Calm Calm - N/A   Clear
5:15 AM 35.1 °F - 24.6 °F 66% 30.05 in 10.0 mi Calm Calm - N/A   Clear
5:35 AM 34.3 °F - 24.6 °F 68% 30.05 in 10.0 mi Calm Calm - N/A   Clear
5:55 AM 33.1 °F 30.0 °F 25.0 °F 72% 30.06 in 10.0 mi SW 3.5 mph - N/A   Clear
6:15 AM 34.0 °F 29.8 °F 25.2 °F 70% 30.06 in 10.0 mi SSW 4.6 mph - N/A   Clear
6:35 AM 34.5 °F 31.6 °F 24.8 °F 68% 30.06 in 10.0 mi SSW 3.5 mph - N/A   Clear
6:55 AM 34.7 °F 31.8 °F 24.8 °F 67% 30.07 in 10.0 mi SSW 3.5 mph - N/A   Clear
7:15 AM 34.9 °F 30.8 °F 24.8 °F 67% 30.07 in 10.0 mi SW 4.6 mph - N/A   Clear
7:55 AM 35.4 °F - 25.3 °F 67% 30.07 in 10.0 mi Calm Calm - N/A   Clear
8:15 AM 37.0 °F - 26.8 °F 66% 30.08 in 10.0 mi Calm Calm - N/A   Clear
8:35 AM 40.6 °F 38.6 °F 28.6 °F 62% 30.08 in 10.0 mi SSW 3.5 mph - N/A   Clear
8:55 AM 43.7 °F 41.1 °F 28.8 °F 56% 30.09 in 10.0 mi SSW 4.6 mph - N/A   Clear
9:15 AM 46.0 °F 44.8 °F 29.1 °F 52% 30.09 in 10.0 mi SSW 3.5 mph - N/A   Clear
9:35 AM 48.9 °F - 30.0 °F 48% 30.09 in 10.0 mi SSW 3.5 mph - N/A   Clear
9:55 AM 52.0 °F - 30.4 °F 44% 30.09 in 10.0 mi SSW 3.5 mph - N/A   Clear
10:15 AM 54.3 °F - 30.4 °F 40% 30.09 in 10.0 mi SSW 5.8 mph - N/A   Clear
10:35 AM 56.7 °F - 30.4 °F 37% 30.08 in 10.0 mi SW 5.8 mph - N/A   Clear
10:55 AM 57.6 °F - 30.2 °F 35% 30.08 in 10.0 mi SSW 8.1 mph - N/A   Clear
11:15 AM 59.0 °F - 30.6 °F 34% 30.08 in 10.0 mi WSW 10.4 mph - N/A   Clear
11:35 AM 60.4 °F - 30.2 °F 32% 30.08 in 10.0 mi WSW 11.5 mph 18.4 mph N/A   Clear
11:55 AM 61.5 °F - 29.8 °F 30% 30.06 in 10.0 mi WSW 8.1 mph - N/A   Clear
12:15 PM 62.2 °F - 30.7 °F 31% 30.05 in 10.0 mi SSW 8.1 mph - N/A   Clear
12:55 PM 64.0 °F - 29.1 °F 27% 30.03 in 10.0 mi WSW 6.9 mph - N/A   Clear
1:15 PM 65.3 °F - 28.6 °F 25% 30.01 in 10.0 mi SSW 4.6 mph - N/A   Clear
1:35 PM 66.2 °F - 27.9 °F 24% 30.00 in 10.0 mi SSW 9.2 mph - N/A   Clear
1:55 PM 66.6 °F - 27.0 °F 23% 30.00 in 10.0 mi South 9.2 mph - N/A   Clear
2:15 PM 67.5 °F - 27.1 °F 22% 29.99 in 10.0 mi SSE 8.1 mph 18.4 mph N/A   Clear
2:35 PM 67.6 °F - 27.1 °F 22% 29.98 in 10.0 mi South 9.2 mph 16.1 mph N/A   Clear
2:55 PM 68.2 °F - 26.6 °F 21% 29.97 in - SW 10.4 mph - N/A   Unknown
3:15 PM 68.4 °F - 27.3 °F 22% 29.96 in 10.0 mi SSW 8.1 mph - N/A   Clear
3:35 PM 68.7 °F - 27.0 °F 21% 29.96 in 10.0 mi SSW 13.8 mph 17.3 mph N/A   Clear
3:55 PM 68.9 °F - 22.1 °F 17% 29.96 in 10.0 mi WSW 12.7 mph 18.4 mph N/A   Clear
4:15 PM 68.9 °F - 21.6 °F 17% 29.96 in 10.0 mi WSW 6.9 mph - N/A   Clear
4:35 PM 68.9 °F - 23.0 °F 18% 29.96 in 10.0 mi SW 12.7 mph 16.1 mph N/A   Clear
4:55 PM 68.7 °F - 21.7 °F 17% 29.96 in 10.0 mi SSW 8.1 mph - N/A   Clear
5:15 PM 68.4 °F - 20.7 °F 16% 29.96 in 10.0 mi SW 12.7 mph - N/A   Clear
5:35 PM 67.5 °F - 19.6 °F 16% 29.96 in 10.0 mi SW 4.6 mph - N/A   Clear
5:55 PM 66.4 °F - 19.6 °F 17% 29.96 in 10.0 mi WSW 5.8 mph - N/A   Clear
6:15 PM 64.8 °F - 19.4 °F 18% 29.97 in 10.0 mi SW 3.5 mph - N/A   Clear
6:35 PM 63.5 °F - 18.7 °F 18% 29.97 in 10.0 mi SW 3.5 mph - N/A   Clear
6:55 PM 62.4 °F - 18.9 °F 19% 29.97 in 10.0 mi Calm Calm - N/A   Clear
7:15 PM 59.4 °F - 20.3 °F 22% 29.98 in 10.0 mi Calm Calm - N/A   Clear
7:35 PM 57.0 °F - 21.4 °F 25% 29.98 in 10.0 mi Calm Calm - N/A   Clear
7:55 PM 56.8 °F - 21.6 °F 25% 29.97 in 10.0 mi Calm Calm - N/A   Clear
8:15 PM 54.9 °F - 22.6 °F 29% 29.97 in 10.0 mi Calm Calm - N/A   Clear
8:35 PM 50.9 °F - 26.6 °F 39% 29.98 in 10.0 mi Calm Calm - N/A   Clear
9:15 PM 48.6 °F - 26.6 °F 42% 29.99 in 10.0 mi Calm Calm - N/A   Clear
9:55 PM 46.6 °F - 27.1 °F 47% 30.01 in 10.0 mi NW 3.5 mph - N/A   Clear
10:15 PM 46.0 °F 43.9 °F 27.3 °F 48% 30.01 in 10.0 mi NW 4.6 mph - N/A   Clear
10:55 PM 44.1 °F 42.5 °F 28.2 °F 54% 30.01 in 10.0 mi WNW 3.5 mph - N/A   Clear
11:15 PM 43.2 °F 39.7 °F 28.6 °F 56% 30.02 in 10.0 mi West 5.8 mph - N/A   Clear
11:35 PM 43.3 °F 39.9 °F 28.0 °F 55% 30.01 in 10.0 mi WNW 5.8 mph - N/A   Clear
11:55 PM 42.6 °F 38.4 °F 28.2 °F 57% 30.03 in 10.0 mi WNW 6.9 mph - N/A   Clear